Location: Oakhurst
(33.6448°N, 111.9543°W)
Time: 02:41:15
(UTC+00:00)

X-37B - Pass Details

Date: 15 May 2021
Orbit: 386 x 389 km, 45.0° (Epoch: 10 June)

Event Time Altitude Azimuth Distance (km) Brightness Sun altitude
Rises 03:57:40 0° 303° (WNW) 2,271 6.2 -18.0°
Reaches altitude 10° 03:59:45 10° 304° (NW) 1,413 4.7 -18.4°
Maximum altitude 04:02:56 84° 32° (NNE) 392 0.5 -18.9°
Enters shadow 04:03:03 80° 84° (E) 395 0.4 -18.9°
